#timestamp,LO_Frequency,Hit,StdDev 
1648846815.7,286047001.2,N
1648846835.5,286046998.2,N
1648846855.3,286047000.6,N
1648846875.2,286047000.1,N
1648846895.0,286046999.8,N
1648846895.9,286046999.8,N
1648846915.8,286047004.1,Y
1648846935.6,286047004.0,P
1648846955.4,286047005.8,P
1648846975.3,286047004.0,N
1648846995.1,286047004.2,N
1648847015.9,286047004.2,N
1648847035.7,286047003.2,N
1648847055.5,286047001.8,N
1648847075.4,286047002.3,N
1648847095.2,286047001.4,N
1648847115.0,286047002.2,N
1648847115.9,286047002.2,N
1648847135.8,286047001.3,N
1648847155.6,286047001.3,N
1648847175.5,286047002.6,N
1648847195.3,286047002.7,N
1648847215.1,286047002.6,N
1648847235.9,286047001.7,N
1648847255.7,286046999.7,N
1648847275.5,286047001.9,N
1648847295.4,286047004.3,Y
1648847315.2,286047001.1,P
1648847335.1,286046999.6,N
1648847336.0,286046999.6,N
1648847355.8,286046998.8,N
1648847375.6,286046998.4,N
1648847395.5,286046996.5,N
1648847415.3,286046998.3,N
1648847435.1,286047000.5,N
1648847455.9,286047000.5,N
1648847475.7,286046999.8,N
1648847495.6,286047000.6,N
1648847515.4,286047000.1,N
1648847535.2,286047000.9,N
1648847555.1,286046999.0,N
1648847556.0,286046999.0,N
1648847575.8,286046998.4,N
1648847595.6,286047000.3,N
1648847615.5,286047000.2,N
1648847635.3,286047002.5,N
1648847655.2,286047000.5,N
1648847675.9,286047000.6,N
1648847695.7,286047002.5,N
1648847715.6,286046999.8,N
1648847735.4,286046999.1,N
1648847755.3,286047001.1,N
1648847775.1,286046999.7,N
1648847776.0,286046999.7,N
1648847795.8,286047000.0,N
1648847815.7,286047000.4,N
1648847835.5,286047002.8,N
1648847855.3,286046999.9,N
1648847875.2,286046999.7,N
1648847895.0,286046998.3,N
1648847895.9,286046998.3,N
1648847915.8,286046999.5,N
1648847935.6,286046999.5,N
1648847955.4,286046999.6,N
1648847975.3,286046999.4,N
1648847995.1,286046999.0,N
1648848015.8,286047001.2,N
1648848035.7,286046998.2,N
1648848055.5,286046999.3,N
1648848075.4,286046998.5,N
1648848095.2,286046998.1,N
1648848115.0,286047000.4,N
1648848115.9,286047000.4,N
1648848135.8,286047000.4,N
1648848155.6,286047000.3,N
1648848175.4,286047001.9,N
1648848195.3,286047002.1,N
1648848215.1,286047000.0,N
1648848235.9,286047000.0,N
1648848255.7,286047000.6,N
1648848275.5,286047000.3,N
1648848295.4,286047000.2,N
1648848315.2,286047000.8,N
1648848335.0,286046999.8,N
1648848335.9,286046999.8,N
1648848355.8,286046999.9,N
1648848375.6,286046999.8,N
1648848395.5,286047000.3,N
1648848415.3,286047000.5,N
1648848435.1,286046999.9,N
1648848455.9,286046998.5,N
1648848475.7,286047000.0,N
1648848495.5,286046998.2,N
1648848515.4,286046998.5,N
1648848535.2,286046999.3,N
1648848555.1,286047000.8,N
1648848556.0,286047000.8,N
1648848575.8,286046999.9,N
1648848595.6,286046999.7,N
1648848615.5,286047001.8,N
1648848635.3,286047002.1,N
1648848655.1,286047002.0,N
1648848675.9,286047004.2,Y
1648848695.4,286047001.9,P
1648848715.2,286047002.0,N
1648848735.0,286047002.8,P
1648848736.0,286047002.8,Y
1648848755.8,286046999.4,P
1648848775.6,286047000.9,N
1648848795.5,286047001.1,N
1648848815.3,286046998.1,N
1648848835.1,286047001.1,N
1648848855.9,286046998.3,N
1648848875.7,286047001.1,N
1648848895.5,286047000.7,N
1648848915.4,286046998.6,N
1648848935.2,286046999.6,N
1648848955.1,286047000.8,N
1648848956.0,286047000.8,N
1648848975.8,286046999.1,N
1648848995.6,286046996.7,N
1648849015.5,286046998.8,N
1648849035.3,286046998.2,N
1648849055.1,286046998.8,N
1648849075.9,286046998.5,N
1648849095.7,286046999.0,N
1648849115.6,286046997.3,N
1648849135.4,286047000.0,N
1648849155.2,286046998.5,N
1648849175.1,286046998.1,N
1648849176.0,286046998.1,N
1648849195.8,286046998.7,N
1648849215.7,286046998.4,N
1648849235.5,286046996.9,N
1648849255.3,286046999.1,N
1648849275.2,286046998.2,N
1648849295.0,286046998.2,N
1648849295.9,286046998.2,N
1648849315.7,286046998.4,N
1648849335.6,286046998.8,N
1648849355.4,286047001.2,N
1648849375.3,286046998.9,N
1648849395.1,286046999.1,N
1648849396.0,286046999.1,N
1648849415.8,286046999.4,N
1648849435.7,286046998.5,N
1648849455.5,286047000.6,N
1648849475.3,286047000.4,N
1648849495.2,286046998.7,N
1648849515.0,286046999.2,N
1648849515.9,286046999.2,N
1648849535.8,286047001.2,N
1648849555.6,286046998.2,N
1648849575.4,286047001.2,N
1648849595.3,286046998.8,N
1648849615.1,286046995.3,Y
1648849635.9,286046997.3,P
1648849655.7,286047000.4,N
1648849675.5,286047000.4,N
1648849695.4,286047000.9,N
1648849715.2,286047000.6,N
1648849735.0,286047000.7,N
1648849736.0,286047000.7,N
1648849755.8,286047002.3,N
1648849775.6,286047000.1,N
1648849795.5,286047000.3,N
1648849815.3,286047002.3,N
1648849835.1,286047002.7,N
1648849855.9,286047000.5,N
1648849875.7,286047001.6,N
1648849895.6,286047001.5,N
1648849915.4,286047000.3,N
1648849935.2,286047000.3,N
1648849955.1,286047002.6,N
1648849956.0,286047002.6,N
1648849975.8,286047000.6,N
1648849995.7,286047002.3,N
1648850015.5,286047001.7,N
1648850035.3,286047002.3,N
1648850055.2,286047004.4,Y
1648850075.0,286047002.7,P
1648850075.9,286047002.7,P
1648850095.7,286047000.9,N
1648850115.6,286047002.1,N
1648850135.4,286046999.9,N
1648850155.3,286047000.4,N
1648850175.1,286047000.0,N
1648850176.0,286047000.0,N
1648850195.8,286047000.1,N
1648850215.7,286047002.3,N
1648850235.5,286047001.0,N
1648850255.3,286046998.5,N
1648850275.2,286047001.1,N
1648850295.0,286046999.0,N
1648850295.9,286046999.0,N
1648850315.8,286047000.2,N
1648850335.6,286047000.6,N
1648850355.4,286047000.9,N
1648850375.3,286047000.2,N
1648850395.1,286047002.8,N
